Find Starlink 2461

NORAD ID: 48428 Int'l Des: 2021-040 Owner: SPXS Country: US Constellation: starlink operational
LEOCIRCULAR

Live-Position

3D-Globus wird geladen...

Über Starlink 2461

Beschreibung wird geladen...

Nächste Überflüge

Passes for default location (London). Set your location on the main map for personalized predictions.

Höhenverlauf

Loading altitude history...

Zweizeiliger Elementsatz

1 48428U 21040A 26126.36751986 .00005503 00000-0 18896-3 0 9993
2 48428 53.1585 270.5550 0000916 109.0207 251.0894 15.31700883275519
Epoch: 6. Mai 2026 • Age: 20 hours

Aktueller Status

Höhe 479.4 km
Geschwindigkeit 7.63 km/s
Subsatellitenpunkt -27.44°S, 56.58°W
Startdatum 9. Mai 2021
Alter 4.9 years
Typ internet

Technische Details

Klassifizierung Payload
Masse 260.00 kg
Trockenmasse 248.00 kg
Gesamtmasse 260.00 kg
Länge 0.20 m
Durchmesser 2.80 m
Spannweite 9.00 m
Form Box + pan
Hersteller SPXS
Bus-Typ Starlink
Phasenstatus In Orbit
Besitzer/Staat SPXS/US

Most Searched